295P/LINEAR (2026)

Japanese version
Home page
Updated on August 11, 2025

---------------------------------------------------------------------

* Profile

* Orbital Elements

Epoch 2026 July 19.0 TT = JDT 2461240.5
T 2026 July 22.78437 TT                                 MPCW
q   2.0255820            (2000.0)            P               Q
n   0.08084574     Peri.   73.07471     +0.17410251     -0.98364323
a   5.2970160      Node     7.37717     +0.70955432     +0.09278242
e   0.6175994      Incl.   21.08794     +0.68280376     +0.15439368
P  12.2
From 71 observations 2002 Jan. 6-2015 Feb. 18, mean residual 0".5.

* Magnitudes Graph

        m1 = 14.0 + 5 log d + 10.0 log r

---------------------------------------------------------------------

The orbital elements are published on M.P.E.C. 2015-G03.
The magnitudes graphs are made with Comet for Windows.

---------------------------------------------------------------------

Copyright(C) Seiichi Yoshida (comet@aerith.net). All rights reserved.